Regional Weather Roundup
Issued by NWS

Home | Current Version | Previous Version | Text Only | Print | Product List | Glossary Off
Versions: 1 2 3 4 5 6 7 8 9 10 11 12 13 14 15 16 17 18 19 20 21 22 23 24 25 26 27 28 29 30 31 32 33 34 35 36 37 38 39 40 41 42 43 44 45 46 47 48 49 50

000
ASUS43 KFSD 051210
RWRSD

WEATHER ROUNDUP FOR SOUTH DAKOTA
NATIONAL WEATHER SERVICE SIOUX FALLS SD
700 AM CDT SUN JUL 05 2015

NOTE: "FAIR" INDICATES FEW OR NO CLOUDS BELOW 12,000 FEET WITH NO
SIGNIFICANT WEATHER AND/OR OBSTRUCTIONS TO VISIBILITY.


SDZ001>005-009-010-012>017-051300-
NORTHWEST AND NORTH CENTRAL SOUTH DAKOTA

CITY           SKY/WX    TMP DP  RH WIND       PRES   REMARKS
BUFFALO          N/A     70  60  70 NE16      29.68S
FAITH            N/A     65  61  87 S15       29.73R
MOBRIDGE       PTCLDY    70  69  97 SE15      29.70F
$$

SDZ012>016-024>037-041>051-057-063-072>074-051300-
SOUTHWEST AND SOUTH CENTRAL SOUTH DAKOTA

CITY           SKY/WX    TMP DP  RH WIND       PRES   REMARKS
RAPID CTY ARPT PTCLDY    65  61  87 E3        29.77F
PIERRE         CLEAR     67  65  93 E6        29.72S
CUSTER         PTCLDY    59  54  83 NW5       29.96F
ELLSWORTH AFB  PTCLDY    68  63  83 S5        29.77S
PHILIP         CLEAR     68  61  78 W6        29.73F
PINE RIDGE     CLEAR     68  62  81 SW6       29.79F
SPEARFISH      FAIR      68  52  56 CALM      29.79F
WINNER         FAIR      70  64  81 E8        29.77R
$$

SDZ004>011-016>023-039-040-051300-
NORTHEAST SOUTH DAKOTA

CITY           SKY/WX    TMP DP  RH WIND       PRES   REMARKS
ABERDEEN       CLEAR     68  62  81 MISG      29.74R
WATERTOWN      CLOUDY    68  64  87 S14G29    29.79R
BROOKINGS      CLOUDY    68  63  83 SE17      29.88F
SISSETON         N/A     69  64  84 SE8       29.77R
$$

SDZ017-020-022-023-036>040-048>070-051300-
SOUTHEAST SOUTH DAKOTA

CITY           SKY/WX    TMP DP  RH WIND       PRES   REMARKS
SIOUX FALLS    TSTM      68  64  87 CALM      29.93R FOG
HURON          CLEAR     68  65  90 SE15      29.79R
CHAMBERLAIN    PTCLDY    68  65  92 SE7       29.77R
MITCHELL       PTCLDY    71  66  84 SE12      29.83R
YANKTON        MOCLDY    70  64  83 SW16G32   29.85F
$$

ABBREVIATIONS USED IN REMARKS
   TC - TEMPERATURE IN CELSIUS
  WCI - WIND CHILL INDEX
   HX - HEAT INDEX
  VSB - VISIBILITY



USA.gov is the U.S. government's official web portal to all federal, state and local government web resources and services.